User: anonymous   Login
Location: Carbonear
(47.7333°N, 53.2500°W)
Time: 09:20:33
(UTC+00:00)
Language:

Gurwin Techsat 1B - Orbit

View from above orbital plane
View from above orbital plane
View from above satellite
View from above satellite

Ground track
Ground track

The orbit data is extracted from the following two-line orbital elements,

1 25397U 98043D   22330.83566858  .00000044  00000-0  39026-4 0  9991
2 25397  98.8403 281.8866 0001679  39.2269 320.9031 14.23790227266530
Epoch (UTC): 26 November 2022 20:03:21
Eccentricity: 0.0001679
inclination: 98.8403°
perigee height: 811 km
apogee height: 814 km
right ascension of ascending node: 281.8866°
argument of perigee: 39.2269°
revolutions per day: 14.23790227
mean anomaly at epoch: 320.9031°
orbit number at epoch: 26653

The dashed part of the orbit path shows where the satellite is in the earth's shadow,  

DLR